| time (UTC) | temp F | wind direction | speed knots | gust knots | rain 1hr in | rain 24hr in | rain mn in | humidity % | barometer mb |
| 20260507123100 | 54 | 344 | 2.6 | 7.8 | 0.00 | 0.00 | 0.00 | 58 | 1016.7 |
| 20260507121559 | 54 | 65 | 1.7 | 7.0 | 0.00 | 0.00 | 0.00 | 59 | 1016.8 |
| 20260507120058 | 54 | 35 | 3.5 | 7.8 | 0.00 | 0.00 | 0.00 | 58 | 1016.7 |
| 20260507114609 | 54 | 344 | 3.5 | 7.0 | 0.00 | 0.00 | 0.00 | 58 | 1016.7 |
| 20260507113128 | 54 | 60 | 3.5 | 7.8 | 0.00 | 0.00 | 0.00 | 58 | 1016.7 |
| 20260507111558 | 55 | 19 | 2.6 | 7.8 | 0.00 | 0.00 | 0.00 | 58 | 1016.8 |
| 20260507110055 | 55 | 6 | 4.3 | 9.6 | 0.00 | 0.00 | 0.00 | 57 | 1016.7 |
| 20260507104555 | 56 | 66 | 3.5 | 9.6 | 0.00 | 0.00 | 0.00 | 56 | 1016.7 |
| 20260507103055 | 56 | 84 | 2.6 | 7.0 | 0.00 | 0.00 | 0.00 | 53 | 1016.7 |
| 20260507101551 | 57 | 44 | 1.7 | 7.0 | 0.00 | 0.00 | 0.00 | 54 | 1016.7 |
| 20260507100050 | 57 | 89 | 3.5 | 7.8 | 0.00 | 0.00 | 0.00 | 54 | 1016.7 |
| 20260507094548 | 58 | 65 | 4.3 | 9.6 | 0.00 | 0.00 | 0.00 | 53 | 1016.6 |
| 20260507093049 | 58 | 37 | 5.2 | 10.4 | 0.00 | 0.00 | 0.00 | 54 | 1016.5 |
| 20260507091551 | 58 | 127 | 2.6 | 6.1 | 0.00 | 0.00 | 0.00 | 52 | 1016.4 |
| 20260507090043 | 58 | 167 | 2.6 | 7.8 | 0.00 | 0.00 | 0.00 | 52 | 1016.3 |
| 20260507084546 | 58 | 107 | 2.6 | 8.7 | 0.00 | 0.00 | 0.00 | 53 | 1016.2 |
| 20260507083040 | 58 | 115 | 1.7 | 7.0 | 0.00 | 0.00 | 0.00 | 54 | 1016.2 |
| 20260507081546 | 57 | 71 | 3.5 | 7.0 | 0.00 | 0.00 | 0.00 | 54 | 1016.2 |
| 20260507080040 | 56 | 96 | 2.6 | 7.0 | 0.00 | 0.00 | 0.00 | 55 | 1016.1 |
| 20260507074536 | 55 | 56 | 1.7 | 6.1 | 0.00 | 0.00 | 0.00 | 59 | 1016.1 |
| 20260507073030 | 54 | 143 | 0.9 | 3.5 | 0.00 | 0.00 | 0.00 | 62 | 1016.1 |
| 20260507071528 | 53 | 98 | 1.7 | 5.2 | 0.00 | 0.00 | 0.00 | 63 | 1016.0 |
| 20260507070027 | 52 | 60 | 1.7 | 5.2 | 0.00 | 0.00 | 0.00 | 63 | 1016.0 |
| 20260507064526 | 52 | 101 | 0.9 | 4.3 | 0.00 | 0.00 | 0.00 | 65 | 1015.9 |
| 20260507063028 | 51 | 63 | 2.6 | 4.3 | 0.00 | 0.00 | 0.00 | 65 | 1015.8 |
| 20260507061524 | 51 | 67 | 1.7 | 4.3 | 0.00 | 0.00 | 0.00 | 66 | 1015.7 |
| 20260507060022 | 51 | 96 | 0.0 | 5.2 | 0.00 | 0.00 | 0.00 | 68 | 1015.5 |
| 20260507054521 | 50 | 64 | 2.6 | 6.1 | 0.00 | 0.00 | 0.00 | 67 | 1015.5 |
| 20260507053020 | 50 | 63 | 0.9 | 6.1 | 0.00 | 0.00 | 0.00 | 68 | 1015.3 |
| 20260507051519 | 51 | 60 | 0.9 | 4.3 | 0.00 | 0.00 | 0.00 | 67 | 1015.3 |
| 20260507050025 | 51 | 108 | 0.0 | 1.7 | 0.00 | 0.00 | 0.00 | 67 | 1015.1 |
| 20260507044516 | 50 | 67 | 0.9 | 3.5 | 0.00 | 0.00 | 0.00 | 67 | 1014.9 |
| 20260507043023 | 50 | 80 | 0.0 | 2.6 | 0.00 | 0.00 | 0.00 | 67 | 1014.7 |
| 20260507041514 | 50 | 70 | 0.0 | 2.6 | 0.00 | 0.00 | 0.00 | 67 | 1014.8 |
| 20260507040013 | 50 | 70 | 0.9 | 2.6 | 0.00 | 0.00 | 0.00 | 67 | 1014.7 |
| 20260507034521 | 50 | 84 | 0.9 | 4.3 | 0.00 | 0.00 | 0.00 | 67 | 1014.6 |
| 20260507033014 | 50 | 51 | 1.7 | 3.5 | 0.00 | 0.00 | 0.00 | 67 | 1014.4 |
| 20260507031508 | 49 | 78 | 0.0 | 2.6 | 0.00 | 0.00 | 0.00 | 67 | 1014.4 |
| 20260507030007 | 49 | 80 | 0.0 | 1.7 | 0.00 | 0.00 | 0.00 | 67 | 1014.3 |
| 20260507024503 | 50 | 87 | 0.0 | 2.6 | 0.00 | 0.00 | 0.00 | 66 | 1014.2 |
| 20260507023006 | 51 | 68 | 0.9 | 4.3 | 0.00 | 0.00 | 0.00 | 65 | 1014.1 |
| 20260507021559 | 51 | 83 | 0.9 | 5.2 | 0.00 | 0.00 | 0.00 | 64 | 1014.1 |
| 20260507020103 | 51 | 81 | 0.9 | 4.3 | 0.00 | 0.00 | 0.00 | 63 | 1013.8 |
| 20260507014556 | 52 | 62 | 2.6 | 7.0 | 0.00 | 0.00 | 0.00 | 62 | 1013.6 |
| 20260507013053 | 52 | 37 | 2.6 | 8.7 | 0.00 | 0.00 | 0.00 | 62 | 1013.6 |
| 20260507011551 | 52 | 37 | 1.7 | 5.2 | 0.00 | 0.00 | 0.00 | 64 | 1013.5 |
| 20260507010049 | 52 | 64 | 0.0 | 3.5 | 0.00 | 0.00 | 0.00 | 64 | 1013.5 |
| 20260507004548 | 52 | 48 | 0.0 | 2.6 | 0.00 | 0.00 | 0.00 | 64 | 1013.4 |
| 20260507003054 | 52 | 29 | 0.0 | 2.6 | 0.00 | 0.00 | 0.00 | 64 | 1013.3 |
| 20260507001609 | 52 | 32 | 0.0 | 1.7 | 0.00 | 0.00 | 0.00 | 64 | 1013.4 |
| 20260507000046 | 53 | 11 | 0.0 | 1.7 | 0.00 | 0.00 | 0.00 | 64 | 1013.4 |
| 20260506234551 | 53 | 65 | 0.9 | 4.3 | 0.00 | 0.00 | 0.00 | 64 | 1013.3 |
| 20260506233043 | 53 | 30 | 2.6 | 7.0 | 0.00 | 0.00 | 0.00 | 66 | 1013.2 |
| 20260506231540 | 53 | 49 | 3.5 | 9.6 | 0.00 | 0.00 | 0.00 | 65 | 1013.2 |
| 20260506230050 | 53 | 37 | 3.5 | 8.7 | 0.00 | 0.00 | 0.00 | 64 | 1013.2 |
| 20260506224532 | 53 | 34 | 1.7 | 7.8 | 0.00 | 0.00 | 0.00 | 66 | 1013.2 |
| 20260506223033 | 53 | 10 | 3.5 | 8.7 | 0.00 | 0.00 | 0.00 | 66 | 1013.2 |
| 20260506221530 | 53 | 38 | 3.5 | 9.6 | 0.00 | 0.00 | 0.00 | 65 | 1013.1 |
| 20260506220033 | 53 | 350 | 3.5 | 9.6 | 0.00 | 0.00 | 0.00 | 66 | 1013.1 |
| 20260506214526 | 53 | 44 | 3.5 | 7.8 | 0.00 | 0.00 | 0.00 | 66 | 1013.1 |
| 20260506213025 | 52 | 34 | 2.6 | 6.1 | 0.00 | 0.00 | 0.00 | 65 | 1013.1 |
| 20260506211524 | 52 | 63 | 2.6 | 7.0 | 0.00 | 0.00 | 0.00 | 67 | 1013.1 |
| 20260506210044 | 52 | 12 | 1.7 | 8.7 | 0.00 | 0.00 | 0.00 | 67 | 1012.9 |
| 20260506204523 | 52 | 40 | 2.6 | 7.0 | 0.00 | 0.00 | 0.00 | 67 | 1012.9 |
| 20260506203022 | 52 | 56 | 3.5 | 9.6 | 0.00 | 0.00 | 0.00 | 67 | 1012.9 |
| 20260506201523 | 52 | 32 | 2.6 | 6.1 | 0.00 | 0.00 | 0.00 | 67 | 1012.8 |
| 20260506200021 | 52 | 77 | 2.6 | 8.7 | 0.00 | 0.00 | 0.00 | 67 | 1012.7 |
| 20260506194520 | 52 | 29 | 3.5 | 9.6 | 0.00 | 0.00 | 0.00 | 67 | 1012.6 |
| 20260506193029 | 52 | 21 | 3.5 | 7.8 | 0.00 | 0.00 | 0.00 | 67 | 1012.5 |
| 20260506191517 | 52 | 4 | 2.6 | 11.3 | 0.00 | 0.00 | 0.00 | 67 | 1012.3 |
| 20260506190015 | 52 | 37 | 3.5 | 10.4 | 0.00 | 0.00 | 0.00 | 66 | 1012.3 |
| 20260506184514 | 52 | 24 | 5.2 | 10.4 | 0.00 | 0.00 | 0.00 | 66 | 1012.2 |
| 20260506183013 | 52 | 19 | 1.7 | 12.2 | 0.00 | 0.00 | 0.00 | 66 | 1012.1 |
| 20260506181512 | 53 | 307 | 3.5 | 10.4 | 0.00 | 0.00 | 0.00 | 65 | 1012.1 |
| 20260506180010 | 53 | 328 | 3.5 | 13.9 | 0.00 | 0.00 | 0.00 | 65 | 1011.8 |
| 20260506174508 | 53 | 352 | 3.5 | 10.4 | 0.00 | 0.00 | 0.00 | 65 | 1011.6 |
| 20260506173007 | 53 | 14 | 4.3 | 11.3 | 0.00 | 0.00 | 0.00 | 64 | 1011.5 |
| 20260506171507 | 54 | 42 | 4.3 | 10.4 | 0.00 | 0.00 | 0.00 | 64 | 1011.5 |
| 20260506170005 | 54 | 30 | 5.2 | 12.2 | 0.00 | 0.00 | 0.00 | 63 | 1011.3 |
| 20260506164517 | 54 | 335 | 6.1 | 11.3 | 0.00 | 0.00 | 0.00 | 63 | 1011.3 |
| 20260506163009 | 55 | 50 | 2.6 | 10.4 | 0.00 | 0.00 | 0.00 | 63 | 1011.3 |
| 20260506161505 | 54 | 354 | 5.2 | 10.4 | 0.00 | 0.00 | 0.00 | 62 | 1011.3 |
| 20260506160003 | 55 | 41 | 6.1 | 12.2 | 0.00 | 0.00 | 0.00 | 62 | 1011.3 |
| 20260506154502 | 55 | 55 | 5.2 | 14.8 | 0.00 | 0.00 | 0.00 | 62 | 1011.4 |
| 20260506153001 | 54 | 77 | 5.2 | 12.2 | 0.00 | 0.00 | 0.00 | 62 | 1011.3 |
| 20260506151605 | 55 | 27 | 6.1 | 12.2 | 0.00 | 0.00 | 0.00 | 60 | 1011.3 |
| 20260506150108 | 55 | 37 | 6.1 | 13.9 | 0.00 | 0.00 | 0.00 | 60 | 1011.3 |
| 20260506144600 | 55 | 31 | 7.0 | 13.0 | 0.00 | 0.00 | 0.00 | 60 | 1011.2 |
| 20260506143059 | 56 | 58 | 3.5 | 12.2 | 0.00 | 0.00 | 0.00 | 62 | 1011.1 |
| 20260506141556 | 55 | 51 | 3.5 | 13.0 | 0.00 | 0.00 | 0.00 | 62 | 1011.1 |
| 20260506140056 | 55 | 329 | 5.2 | 13.9 | 0.00 | 0.00 | 0.00 | 62 | 1011.1 |
| 20260506134555 | 56 | 21 | 4.3 | 13.0 | 0.00 | 0.00 | 0.00 | 61 | 1011.1 |
| 20260506133108 | 56 | 4 | 5.2 | 15.6 | 0.00 | 0.00 | 0.00 | 60 | 1011.1 |
| 20260506131611 | 56 | 345 | 3.5 | 12.2 | 0.00 | 0.00 | 0.00 | 62 | 1011.1 |
| 20260506130052 | 56 | 346 | 4.3 | 11.3 | 0.00 | 0.00 | 0.00 | 61 | 1011.0 |
| 20260506124552 | 55 | 23 | 6.1 | 13.0 | 0.00 | 0.00 | 0.00 | 60 | 1010.9 |